Regional Weather Roundup
Issued by NWS

Home | Current Version | Previous Version | Graphics & Text | Print | Product List | Glossary On
Versions: 1 2 3 4 5 6 7 8 9 10 11 12 13 14 15 16 17 18 19 20 21 22 23 24 25 26 27 28 29 30 31 32 33 34 35 36 37 38 39 40 41 42 43 44 45 46 47 48 49 50
000
ASUS43 KBIS 090210
RWRND

NORTH DAKOTA REGIONAL WEATHER ROUNDUP
NATIONAL WEATHER SERVICE BISMARCK ND
800 PM CST MON FEB 08 2016

NOTE: "FAIR" INDICATES FEW OR NO CLOUDS BELOW 12,000 FEET WITH NO
SIGNIFICANT WEATHER AND/OR OBSTRUCTIONS TO VISIBILITY.


NDZ001>003-009>011-017-090300-
NORTHWEST NORTH DAKOTA

CITY           SKY/WX    TMP DP  RH WIND       PRES   REMARKS
WILLISTON      CLOUDY    32  21  64 NE6       30.28F
MINOT          PTCLDY    20  12  71 NW8       30.26F WCI  10
MINOT AFB      PTCLDY    18  15  88 CALM      30.26F
$$

NDZ018>021-031>035-040>046-090300-
SOUTHWEST NORTH DAKOTA

CITY           SKY/WX    TMP DP  RH WIND       PRES   REMARKS
BISMARCK       CLOUDY    31  17  56 NW13      30.26R
DICKINSON      CLOUDY    30  15  53 NW8       30.23F
GARRISON         N/A     22  16  78 N9        30.25F WCI  12
HETTINGER ARPT CLOUDY    32  12  43 N8        30.25S
$$

NDZ004>008-012>016-024-026-027-054-090300-
NORTHEAST NORTH DAKOTA

CITY           SKY/WX    TMP DP  RH WIND       PRES   REMARKS
GRAND FORKS    MOCLDY    10   2  69 N21       30.25F WCI  -9
GRND FRKS AFB  CLOUDY    10   3  72 N23G29    30.26R WCI -10
DEVILS LAKE    CLEAR     10   7  87 N9        30.25R WCI  -3
$$

NDZ022-023-025-028>030-036>039-047>053-090300-
SOUTHEAST NORTH DAKOTA

CITY           SKY/WX    TMP DP  RH WIND       PRES   REMARKS
FARGO          CLOUDY    10   3  73 N23       30.22S WCI -10
JAMESTOWN      CLEAR     16  10  77 N12       30.21R WCI   3
$$




USA.gov is the U.S. government's official web portal to all federal, state and local government web resources and services.